Location: Old Broadwell Mill Observatory
(33.8015°N, 85.8137°W)
Time: 02:00:47
(UTC-06:00)

Amateur Radio Satellites - All Passes

Search period start: 18 January 2017 01:30
Search period end: 19 January 2017 01:30
Location: Old Broadwell Mill Observatory, 33.8015°N, 85.8137°W

Satellite Date Start Highest point End Downlink Frequencies (MHz)
Time Altitude Azimuth
Cosmos 2491 18 Jan 01:34:09 01:42:33 57° 91° (E) 01:51:00 435.465 / 435.565
BEESAT 18 Jan 01:45:16 01:50:00 88° 83° (E) 01:54:47 436.000
SWISSCUBE 18 Jan 01:46:36 01:51:20 80° 257° (WSW) 01:56:07 437.505
PHONESAT 2.4 18 Jan 01:47:02 01:49:12 36° 150° (SSE) 01:51:21 2401.200-2431.200
M-CUBED/EXP-1 PRIME 18 Jan 01:49:45 01:52:45 18° 65° (ENE) 01:55:39 437.505
Cosmos 2504 18 Jan 02:00:21 02:07:45 71° 82° (E) 02:14:52 435.465 / 435.565
BEESAT 2 18 Jan 02:06:10 02:10:05 47° 59° (ENE) 02:13:58 435.950
ITAMSAT 1 18 Jan 02:06:12 02:10:28 25° 96° (E) 02:14:44 435.822/435.867
MOZHAYETS 4 18 Jan 02:06:41 02:10:53 38° 73° (ENE) 02:15:08
AIST 1 18 Jan 02:17:12 02:19:20 14° 274° (W) 02:21:28
PCSat 18 Jan 02:22:50 02:25:35 14° 311° (NW) 02:28:20 145.827
AUBIESAT-1 18 Jan 02:27:44 02:31:49 38° 69° (ENE) 02:35:41 437.475
CUBESAT XI-V 18 Jan 02:46:33 02:49:09 15° 67° (ENE) 02:51:45 437.345
ITUPSAT 1 18 Jan 02:47:52 02:51:20 20° 265° (W) 02:54:48 437.325
YUBILEINY 18 Jan 02:49:19 02:56:36 30° 275° (W) 03:03:51 435.215
CUSAT 1 18 Jan 02:56:27 03:00:48 65° 94° (E) 03:06:37 437.405
Gurwin Techsat 1B 18 Jan 03:01:06 03:04:29 17° 295° (WNW) 03:07:54 435.225
KKS-1 18 Jan 03:06:47 03:11:09 58° 75° (ENE) 03:15:31 437.445
BEESAT 3 18 Jan 03:07:10 03:08:49 12° 252° (WSW) 03:10:28 437.485
AO-7 18 Jan 03:07:55 03:16:12 62° 104° (ESE) 03:24:23 29.400- 29.500
RS-15 18 Jan 03:20:04 03:26:27 15° 340° (NNW) 03:32:56 29.354- 29.394
DANDE 18 Jan 03:21:06 03:23:33 19° 85° (E) 03:26:28 436.750
PHONESAT 2.4 18 Jan 03:21:23 03:23:23 25° 345° (NNW) 03:25:24 2401.200-2431.200
M-CUBED/EXP-1 PRIME 18 Jan 03:22:44 03:26:56 36° 256° (WSW) 03:30:56 437.505
Cosmos 2491 18 Jan 03:32:47 03:39:45 27° 288° (WNW) 03:46:48 435.465 / 435.565
AIST 2 18 Jan 03:41:16 03:42:14 11° 47° (NE) 03:43:12 435.215
ITAMSAT 1 18 Jan 03:45:18 03:49:52 32° 290° (WNW) 03:54:26 435.822/435.867
MOZHAYETS 4 18 Jan 03:45:22 03:48:09 16° 266° (W) 03:50:58
BEESAT 2 18 Jan 03:46:14 03:47:23 11° 252° (WSW) 03:48:32 435.950
Cosmos 2504 18 Jan 03:56:17 04:00:07 15° 279° (W) 04:03:54 435.465 / 435.565
BRITE-PL 18 Jan 04:00:14 04:04:21 27° 95° (E) 04:08:11 437.365/2234.400
AUBIESAT-1 18 Jan 04:03:30 04:06:12 16° 260° (W) 04:08:50 437.475
STARS 18 Jan 04:07:50 04:12:10 62° 259° (WSW) 04:16:31 437.465
HORYU 2 18 Jan 04:13:03 04:15:36 15° 94° (E) 04:18:09 437.375
GOMX 1 18 Jan 04:19:37 04:21:55 14° 92° (E) 04:24:09 467.674
CUBESAT XI-V 18 Jan 04:21:35 04:26:04 47° 261° (W) 04:30:37 437.345
CUSAT 1 18 Jan 04:41:50 04:43:45 12° 298° (WNW) 04:45:51 437.405
LilacSat-2 18 Jan 04:50:08 04:51:34 12° 93° (E) 04:53:01 437.200
PHONESAT 2.4 18 Jan 04:56:31 04:58:00 15° 1° (N) 04:59:29 2401.200-2431.200
AO-7 18 Jan 05:01:44 05:08:19 27° 300° (WNW) 05:14:54 29.400- 29.500
STRAND 1 18 Jan 05:03:10 05:05:27 13° 64° (ENE) 05:07:44 437.568
DANDE 18 Jan 05:03:46 05:06:10 17° 292° (WNW) 05:08:59 436.750
DOVE 4 18 Jan 05:11:47 05:14:51 20° 95° (E) 05:17:52 437.250
AIST 2 18 Jan 05:16:56 05:21:10 72° 243° (WSW) 05:25:22 435.215
Cubesat XI-IV 18 Jan 05:17:52 05:22:24 28° 97° (E) 05:26:55 437.490
NOAA 15 18 Jan 05:36:16 05:41:21 45° 99° (E) 05:46:25 137.62
BRITE-PL 18 Jan 05:38:47 05:42:40 24° 292° (WNW) 05:46:19 437.365/2234.400
GONETS M04 18 Jan 05:39:24 05:46:03 23° 71° (ENE) 05:52:40
RS-15 18 Jan 05:40:25 05:46:54 15° 20° (NNE) 05:53:19 29.354- 29.394
ISS 18 Jan 05:47:59 05:51:13 67° 42° (NE) 05:54:26 145.825
HORYU 2 18 Jan 05:48:06 05:52:14 39° 288° (WNW) 05:56:23 437.375
GOMX 1 18 Jan 05:56:07 06:00:12 37° 288° (WNW) 06:04:06 467.674
O/OREOS (USA 219) 18 Jan 06:10:46 06:15:13 76° 109° (ESE) 06:19:42 437.305
CUTE-I 18 Jan 06:14:52 06:20:13 77° 285° (WNW) 06:25:32 437.470
Cosmos 2499 18 Jan 06:20:59 06:27:53 49° 79° (E) 06:34:39 435.465 / 435.565
CANX-2 18 Jan 06:21:49 06:24:43 17° 94° (E) 06:27:35 2200.000
LilacSat-2 18 Jan 06:22:23 06:25:57 36° 286° (WNW) 06:29:31 437.200
PHONESAT 2.4 18 Jan 06:30:29 06:32:34 29° 17° (NNE) 06:34:40 2401.200-2431.200
SEEDS 18 Jan 06:38:54 06:41:22 15° 93° (E) 06:43:50 437.485
STRAND 1 18 Jan 06:39:00 06:44:02 63° 259° (WSW) 06:49:06 437.568
NOAA 18 18 Jan 06:39:50 06:45:18 87° 285° (WNW) 06:50:45 137.9125
DOVE 4 18 Jan 06:49:06 06:52:30 25° 289° (WNW) 06:55:52 437.250
COMPASS 1 18 Jan 06:50:00 06:51:50 13° 93° (E) 06:53:39 437.405
SO-50 18 Jan 06:54:45 06:58:26 23° 111° (ESE) 07:02:06 436.795
Cubesat XI-IV 18 Jan 06:57:47 07:02:23 30° 291° (WNW) 07:06:58 437.490
CINEMA 3 18 Jan 06:58:52 07:03:04 81° 101° (ESE) 07:07:22 145.822/145.860
AAUSAT CUBESAT 2 18 Jan 07:03:42 07:05:53 14° 93° (E) 07:08:03 437.432
UWE-3 18 Jan 07:10:30 07:12:41 13° 94° (E) 07:14:52 435.000/436.395/437.385
NOAA 15 18 Jan 07:17:05 07:20:44 19° 294° (WNW) 07:24:22 137.62
HO-68 18 Jan 07:25:44 07:32:56 76° 104° (ESE) 07:40:05 435.675
CUTE 1.7 + AOD 2 18 Jan 07:27:40 07:31:59 84° 281° (WNW) 07:36:16 437.475
PRISM 18 Jan 07:34:40 07:37:55 22° 70° (ENE) 07:41:10 437.425
GONETS M04 18 Jan 07:34:43 07:43:27 66° 268° (W) 07:52:10
ZACube-1 18 Jan 07:34:52 07:37:28 15° 94° (E) 07:40:05 437.345
RS-15 18 Jan 07:52:20 08:04:00 45° 50° (NE) 08:15:10 29.354- 29.394
CANX-2 18 Jan 07:56:46 08:00:34 31° 288° (WNW) 08:04:21 2200.000
PHONESAT 2.4 18 Jan 08:04:39 08:06:42 27° 211° (SSW) 08:08:45 2401.200-2431.200
CUBEBUG 2 18 Jan 08:11:04 08:15:22 66° 283° (WNW) 08:19:47 437.445
SEEDS 18 Jan 08:13:15 08:17:08 35° 287° (WNW) 08:20:59 437.485
Oscar 11 18 Jan 08:14:59 08:19:02 37° 98° (E) 08:23:04 145.826/435.025
Cosmos 2499 18 Jan 08:15:14 08:20:26 22° 276° (W) 08:25:38 435.465 / 435.565
COMPASS 1 18 Jan 08:23:34 08:27:31 41° 286° (WNW) 08:31:27 437.405
SO-50 18 Jan 08:34:26 08:38:43 33° 305° (NW) 08:42:57 436.795
AAUSAT CUBESAT 2 18 Jan 08:37:35 08:41:27 36° 287° (WNW) 08:45:16 437.432
DELFI C3 18 Jan 08:42:31 08:45:43 23° 96° (E) 08:48:53 145.870
UWE-3 18 Jan 08:45:08 08:49:15 42° 286° (WNW) 08:53:28 435.000/436.395/437.385
UNISAT 6 18 Jan 08:46:19 08:50:21 42° 74° (ENE) 08:54:22 437.425
FUNcube-1 18 Jan 08:47:54 08:52:16 77° 283° (WNW) 08:56:44 145.935
TIGRISAT 18 Jan 09:00:17 09:04:29 58° 75° (ENE) 09:08:39 435.000
PRISM 18 Jan 09:09:42 09:13:03 23° 263° (W) 09:16:24 437.425
ZACube-1 18 Jan 09:09:46 09:13:48 38° 287° (WNW) 09:17:56 437.345
ANTELSAT 18 Jan 09:14:46 09:19:03 86° 258° (WSW) 09:23:19 437.575/2403.000
HO-68 18 Jan 09:15:20 09:19:50 18° 300° (WNW) 09:24:19 435.675
PCSat 18 Jan 09:28:29 09:33:06 27° 56° (NE) 09:37:41 145.827
JAS-2 18 Jan 09:37:09 09:42:04 44° 71° (ENE) 09:47:21 435.910
POPSAT HIP 1 18 Jan 09:37:58 09:39:55 13° 67° (ENE) 09:41:51 437.405
HUMSAT D 18 Jan 09:42:47 09:47:04 72° 101° (ESE) 09:51:20 437.325/437.525
DUCHIFAT 1 18 Jan 09:51:15 09:53:50 16° 68° (ENE) 09:56:24 145.980
Oscar 11 18 Jan 09:52:13 09:54:49 16° 292° (WNW) 09:57:25 145.826/435.025
NANOSAT C BR1 18 Jan 09:54:57 09:57:59 20° 70° (ENE) 10:01:01 145.865
ESTCUBE 1 18 Jan 09:57:35 09:58:29 11° 92° (E) 09:59:24 437.505/2401.250
RS-15 18 Jan 10:05:00 10:16:37 52° 251° (WSW) 10:27:45 29.354- 29.394
DELFI C3 18 Jan 10:17:24 10:20:22 20° 290° (WNW) 10:23:19 145.870
UNISAT 6 18 Jan 10:25:23 10:27:13 12° 267° (W) 10:29:02 437.425
BUGSAT 1 18 Jan 10:35:44 10:38:31 18° 69° (ENE) 10:41:17 437.445
QB50P1 18 Jan 10:44:20 10:48:32 89° 86° (E) 10:52:45 145.935-145.965
POLYITAN 1 18 Jan 10:47:43 10:51:55 82° 259° (W) 10:56:07 437.675
QB50P2 18 Jan 10:48:52 10:53:04 73° 258° (WSW) 10:57:16 145.880/145.840
BY70-1 18 Jan 10:54:16 10:57:33 50° 284° (WNW) 11:00:36 436.1900
SPROUT 18 Jan 11:05:08 11:07:42 16° 94° (E) 11:10:17 437.525
Oscar 19 18 Jan 11:06:03 11:08:13 13° 64° (ENE) 11:10:24 437.125/150
CUBEBUG 1 18 Jan 11:09:33 11:13:41 43° 99° (E) 11:17:47 437.445
POPSAT HIP 1 18 Jan 11:11:18 11:15:16 42° 261° (W) 11:19:15 437.405
PCSat 18 Jan 11:11:37 11:16:29 34° 251° (WSW) 11:21:19 145.827
AISAT 18 Jan 11:19:35 11:23:37 35° 98° (E) 11:27:36 437.250
JAS-2 18 Jan 11:24:10 11:27:30 17° 268° (W) 11:30:58 435.910
DUCHIFAT 1 18 Jan 11:25:26 11:29:12 33° 262° (W) 11:32:59 145.980
NANOSAT C BR1 18 Jan 11:29:57 11:33:29 26° 263° (W) 11:37:02 145.865
ESTCUBE 1 18 Jan 11:31:08 11:35:35 56° 285° (WNW) 11:39:59 437.505/2401.250
50 SAT 18 Jan 11:38:54 11:42:18 41° 99° (E) 11:45:38 437.505
Cosmos 2491 18 Jan 11:50:24 11:56:54 22° 70° (ENE) 12:03:24 435.465 / 435.565
VELOX 1 18 Jan 11:52:50 11:57:15 86° 102° (ESE) 12:01:37 145.980
BUGSAT 1 18 Jan 12:10:07 12:13:39 28° 263° (W) 12:17:09 437.445
AO-7 18 Jan 12:18:08 12:19:23 10° 50° (NE) 12:20:39 29.400- 29.500
DX 1 18 Jan 12:32:57 12:37:16 70° 285° (WNW) 12:41:33 434.975-435.025
UKube-1 18 Jan 12:36:48 12:41:08 89° 277° (W) 12:45:25 .
Gurwin Techsat 1B 18 Jan 12:36:58 12:42:07 55° 73° (ENE) 12:47:18 435.225
AO-85 18 Jan 12:38:31 12:41:40 17° 110° (ESE) 12:44:41 145.980
SPROUT 18 Jan 12:39:51 12:43:41 34° 288° (WNW) 12:47:30 437.525
TISAT 1 18 Jan 12:40:44 12:44:15 26° 97° (E) 12:47:46 437.305
Oscar 19 18 Jan 12:41:45 12:46:53 68° 258° (WSW) 12:52:06 437.125/150
CUBEBUG 1 18 Jan 12:47:28 12:49:32 13° 293° (WNW) 12:51:37 437.445
AISAT 18 Jan 12:56:58 12:59:45 17° 292° (WNW) 13:02:32 437.250
AIST 1 18 Jan 13:03:30 13:07:08 26° 90° (E) 13:10:45
ITUPSAT 1 18 Jan 13:15:36 13:17:17 12° 93° (E) 13:18:56 437.325
ITAMSAT 1 18 Jan 13:20:31 13:24:46 27° 69° (ENE) 13:29:03 435.822/435.867
JUGNU 18 Jan 13:24:35 13:26:55 12° 165° (SSE) 13:29:15 437.505
CUSAT 1 18 Jan 13:32:37 13:40:14 46° 76° (ENE) 13:47:16 437.405
Cosmos 2491 18 Jan 13:45:40 13:54:20 67° 268° (W) 14:03:02 435.465 / 435.565
YUBILEINY 18 Jan 13:47:08 13:55:47 65° 92° (E) 14:04:30 435.215
BEESAT 18 Jan 13:49:37 13:53:49 30° 98° (E) 13:57:59 436.000
SWISSCUBE 18 Jan 13:50:51 13:55:15 35° 99° (E) 13:59:37 437.505
DANDE 18 Jan 13:59:09 14:05:44 29° 73° (ENE) 14:12:40 436.750
AO-7 18 Jan 14:02:16 14:10:24 60° 68° (ENE) 14:18:35 29.400- 29.500
MOZHAYETS 4 18 Jan 14:07:21 14:09:16 12° 92° (E) 14:11:11
TISAT 1 18 Jan 14:16:39 14:19:41 20° 291° (WNW) 14:22:42 437.305
AO-85 18 Jan 14:17:15 14:21:49 42° 302° (WNW) 14:26:05 145.980
Gurwin Techsat 1B 18 Jan 14:19:24 14:22:20 15° 267° (W) 14:25:16 435.225
Cosmos 2504 18 Jan 14:31:57 14:40:40 70° 93° (E) 14:48:59 435.465 / 435.565
AIST 1 18 Jan 14:41:24 14:44:38 20° 284° (WNW) 14:47:53
ITUPSAT 1 18 Jan 14:50:40 14:55:24 58° 285° (WNW) 15:00:06 437.325
ITAMSAT 1 18 Jan 14:59:37 15:04:05 30° 262° (W) 15:08:36 435.822/435.867
KKS-1 18 Jan 15:02:59 15:05:30 15° 94° (E) 15:07:59 437.445
BRITE-PL 18 Jan 15:05:57 15:10:33 26° 69° (ENE) 15:15:10 437.365/2234.400
M-CUBED/EXP-1 PRIME 18 Jan 15:06:35 15:08:36 15° 100° (E) 15:10:35 437.505
JUGNU 18 Jan 15:11:06 15:15:12 20° 175° (S) 15:19:21 437.505
CUSAT 1 18 Jan 15:14:58 15:21:49 33° 273° (W) 15:28:13 437.405
BEESAT 3 18 Jan 15:15:11 15:17:48 18° 110° (ESE) 15:20:27 437.485
GOMX 1 18 Jan 15:23:24 15:26:19 15° 66° (ENE) 15:29:10 467.674
BEESAT 18 Jan 15:27:38 15:31:23 23° 291° (WNW) 15:35:07 436.000
SWISSCUBE 18 Jan 15:29:16 15:32:44 20° 292° (WNW) 15:36:12 437.505
DANDE 18 Jan 15:40:58 15:48:39 58° 267° (W) 15:56:46 436.750
MOZHAYETS 4 18 Jan 15:42:10 15:46:39 51° 286° (WNW) 15:51:09
AUBIESAT-1 18 Jan 15:44:11 15:47:23 42° 105° (ESE) 15:50:30 437.475
YUBILEINY 18 Jan 15:46:32 15:53:09 23° 289° (WNW) 15:59:51 435.215
BEESAT 2 18 Jan 15:54:41 15:57:39 21° 111° (ESE) 16:00:38 435.950
CUTE-I 18 Jan 15:56:25 15:58:40 13° 63° (ENE) 16:00:54 437.470
AO-7 18 Jan 15:56:53 16:03:29 26° 263° (W) 16:10:09 29.400- 29.500
STARS 18 Jan 16:01:15 16:05:07 30° 98° (E) 16:08:57 437.465
DOVE 4 18 Jan 16:13:23 16:16:36 17° 69° (ENE) 16:19:44 437.250
CUBESAT XI-V 18 Jan 16:21:48 16:26:26 58° 100° (E) 16:31:01 437.345
O/OREOS (USA 219) 18 Jan 16:24:32 16:29:03 75° 70° (ENE) 16:33:33 437.305
NOAA 18 18 Jan 16:24:57 16:27:41 14° 63° (ENE) 16:30:26 137.9125
Cosmos 2504 18 Jan 16:28:18 16:34:34 22° 289° (WNW) 16:40:40 435.465 / 435.565
Cubesat XI-IV 18 Jan 16:36:05 16:40:44 32° 70° (ENE) 16:45:23 437.490
SRMSAT 18 Jan 16:36:49 16:40:20 16° 169° (SSE) 16:43:52 437.500
KKS-1 18 Jan 16:38:03 16:42:09 39° 288° (WNW) 16:46:15 437.445
M-CUBED/EXP-1 PRIME 18 Jan 16:40:35 16:43:03 19° 294° (WNW) 16:45:28 437.505
HORYU 2 18 Jan 16:41:39 16:46:01 71° 257° (WSW) 16:50:26 437.375
BRITE-PL 18 Jan 16:43:31 16:48:43 38° 263° (W) 16:53:59 437.365/2234.400
BEESAT 3 18 Jan 16:51:47 16:55:10 28° 304° (NW) 16:58:36 437.485
NOAA 15 18 Jan 16:52:22 16:57:26 49° 73° (ENE) 17:02:32 137.62
GOMX 1 18 Jan 16:58:25 17:03:50 63° 259° (W) 17:09:07 467.674
JUGNU 18 Jan 16:59:24 17:03:35 20° 185° (S) 17:07:46 437.505
LilacSat-2 18 Jan 16:59:57 17:03:37 56° 76° (ENE) 17:07:19 437.200
SO-50 18 Jan 17:08:57 17:13:26 75° 60° (ENE) 17:17:53 436.795
BEESAT 2 18 Jan 17:31:58 17:35:15 25° 305° (NW) 17:38:35 435.950
CUTE-I 18 Jan 17:32:46 17:38:03 69° 258° (WSW) 17:43:21 437.470
STARS 18 Jan 17:38:08 17:41:12 19° 292° (WNW) 17:44:17 437.465
DOVE 4 18 Jan 17:49:03 17:53:56 45° 261° (W) 17:58:38 437.250
HO-68 18 Jan 17:50:12 17:56:41 38° 67° (ENE) 18:03:11 435.675
CINEMA 3 18 Jan 17:56:27 18:00:46 45° 75° (ENE) 18:04:55 145.822/145.860
CUBESAT XI-V 18 Jan 18:01:28 18:03:15 12° 295° (WNW) 18:05:01 437.345
NOAA 18 18 Jan 18:02:14 18:07:43 68° 257° (WSW) 18:13:12 137.9125
CUTE 1.7 + AOD 2 18 Jan 18:16:16 18:20:13 39° 74° (ENE) 18:24:11 437.475
Cubesat XI-IV 18 Jan 18:16:20 18:20:44 26° 264° (W) 18:25:10 437.490
SRMSAT 18 Jan 18:24:29 18:28:51 21° 179° (S) 18:33:13 437.500
NOAA 15 18 Jan 18:34:10 18:37:25 16° 266° (W) 18:40:42 137.62
GONETS M04 18 Jan 18:35:41 18:42:49 30° 85° (E) 18:49:59
CANX-2 18 Jan 18:44:44 18:48:57 75° 259° (WSW) 18:53:14 2200.000
JUGNU 18 Jan 18:49:17 18:51:54 13° 194° (SSW) 18:54:31 437.505
Cosmos 2499 18 Jan 18:51:31 18:59:40 49° 90° (E) 19:07:19 435.465 / 435.565
STRAND 1 18 Jan 18:53:20 18:58:25 61° 101° (ESE) 19:03:30 437.568
SEEDS 18 Jan 19:00:11 19:04:23 89° 266° (W) 19:08:38 437.485
CUBEBUG 2 18 Jan 19:05:13 19:09:21 60° 76° (ENE) 19:13:27 437.445
Oscar 11 18 Jan 19:06:44 19:09:40 18° 69° (ENE) 19:12:37 145.826/435.025
COMPASS 1 18 Jan 19:09:36 19:13:45 75° 77° (ENE) 19:17:57 437.405
AIST 2 18 Jan 19:10:23 19:14:24 60° 116° (ESE) 19:18:30 435.215
AAUSAT CUBESAT 2 18 Jan 19:23:01 19:27:10 82° 78° (ENE) 19:31:22 437.432
CINEMA 3 18 Jan 19:36:03 19:38:01 13° 266° (W) 19:39:59 145.822/145.860
HO-68 18 Jan 19:37:52 19:44:18 35° 262° (W) 19:50:48 435.675
UWE-3 18 Jan 19:37:55 19:42:04 88° 258° (WSW) 19:46:13 435.000/436.395/437.385
FUNcube-1 18 Jan 19:39:33 19:43:30 47° 75° (ENE) 19:47:28 145.935
CUTE 1.7 + AOD 2 18 Jan 19:54:07 19:56:11 13° 267° (W) 19:58:15 437.475
ZACube-1 18 Jan 20:01:15 20:05:23 81° 258° (WSW) 20:09:32 437.345
SRMSAT 18 Jan 20:13:28 20:17:22 18° 189° (S) 20:21:15 437.500
HUMSAT D 18 Jan 20:30:26 20:33:55 27° 72° (ENE) 20:37:25 437.325/437.525
GONETS M04 18 Jan 20:30:48 20:39:08 50° 281° (WNW) 20:47:35
STRAND 1 18 Jan 20:34:32 20:37:02 14° 296° (WNW) 20:39:31 437.568
Oscar 11 18 Jan 20:41:44 20:45:32 31° 263° (W) 20:49:23 145.826/435.025
UNISAT 6 18 Jan 20:43:19 20:45:10 12° 93° (E) 20:47:03 437.425
Cosmos 2499 18 Jan 20:45:40 20:52:53 30° 285° (WNW) 20:59:46 435.465 / 435.565
ISS 18 Jan 20:50:23 20:52:03 13° 127° (SE) 20:53:43 145.825
AIST 2 18 Jan 20:51:44 20:53:16 12° 312° (NW) 20:54:47 435.215
PRISM 18 Jan 20:53:59 20:58:03 61° 101° (E) 21:02:05 437.425
TIGRISAT 18 Jan 20:56:23 20:59:15 17° 95° (E) 21:02:08 435.000
DELFI C3 18 Jan 20:57:44 21:01:41 62° 260° (W) 21:05:40 145.870
BY70-1 18 Jan 21:07:10 21:08:15 12° 68° (ENE) 21:09:22 436.1900
ANTELSAT 18 Jan 21:10:21 21:14:06 26° 97° (E) 21:17:53 437.575/2403.000
FUNcube-1 18 Jan 21:19:30 21:19:57 10° 268° (W) 21:20:25 145.935
CUBEBUG 1 18 Jan 22:02:00 22:05:28 23° 70° (ENE) 22:08:57 437.445
HUMSAT D 18 Jan 22:06:44 22:09:30 18° 266° (W) 22:12:18 437.325/437.525
RS-15 18 Jan 22:10:41 22:21:03 39° 105° (ESE) 22:31:48 29.354- 29.394
AISAT 18 Jan 22:13:35 22:16:52 20° 69° (ENE) 22:20:08 437.250
UNISAT 6 18 Jan 22:17:47 22:22:03 48° 286° (WNW) 22:26:24 437.425
ISS 18 Jan 22:25:08 22:28:14 41° 320° (NW) 22:31:20 145.825
ESTCUBE 1 18 Jan 22:26:12 22:30:43 81° 78° (ENE) 22:35:16 437.505/2401.250
TIGRISAT 18 Jan 22:31:56 22:35:58 35° 287° (WNW) 22:40:05 435.000
JAS-2 18 Jan 22:32:49 22:40:03 67° 102° (ESE) 22:47:48 435.910
QB50P1 18 Jan 22:33:42 22:36:43 19° 95° (E) 22:39:43 145.935-145.965
BY70-1 18 Jan 22:36:08 22:38:20 20° 265° (W) 22:40:41 436.1900
POLYITAN 1 18 Jan 22:37:04 22:40:18 21° 96° (E) 22:43:31 437.675
QB50P2 18 Jan 22:38:05 22:41:30 23° 96° (E) 22:44:54 145.880/145.840
VELOX 1 18 Jan 22:45:58 22:50:12 45° 74° (ENE) 22:54:27 145.980
ANTELSAT 18 Jan 22:47:08 22:50:38 23° 289° (WNW) 22:54:12 437.575/2403.000
AO-85 18 Jan 22:52:16 22:56:03 48° 59° (ENE) 22:59:51 145.980
POPSAT HIP 1 18 Jan 22:59:39 23:03:36 38° 99° (E) 23:07:33 437.405
DUCHIFAT 1 18 Jan 23:12:45 23:16:49 48° 100° (E) 23:20:52 145.980
NANOSAT C BR1 18 Jan 23:17:13 23:21:23 61° 101° (ESE) 23:25:33 145.865
DX 1 18 Jan 23:24:11 23:28:28 59° 75° (ENE) 23:32:47 434.975-435.025
UKube-1 18 Jan 23:27:12 23:31:19 44° 73° (ENE) 23:35:26 .
SPROUT 18 Jan 23:28:34 23:32:50 78° 258° (WSW) 23:37:06 437.525
TISAT 1 18 Jan 23:30:10 23:31:57 13° 67° (ENE) 23:33:44 437.305
CUBEBUG 1 18 Jan 23:37:55 23:41:36 25° 264° (W) 23:45:16 437.445
50 SAT 18 Jan 23:42:30 23:45:51 39° 261° (W) 23:49:14 437.505
AISAT 18 Jan 23:49:12 23:53:05 29° 262° (W) 23:56:59 437.250
BUGSAT 1 18 Jan 23:54:55 23:58:50 50° 100° (E) 00:02:47 437.445
YUBILEINY 19 Jan 00:03:14 00:10:17 26° 72° (ENE) 00:17:15 435.215
PCSat 19 Jan 00:05:34 00:10:48 54° 111° (ESE) 00:16:04 145.827
QB50P1 19 Jan 00:08:51 00:12:27 28° 288° (WNW) 00:16:02 145.935-145.965
POLYITAN 1 19 Jan 00:12:31 00:15:59 25° 289° (WNW) 00:19:28 437.675
QB50P2 19 Jan 00:13:50 00:17:09 23° 290° (WNW) 00:20:29 145.880/145.840
JAS-2 19 Jan 00:19:12 00:24:30 23° 295° (WNW) 00:30:06 435.910
RS-15 19 Jan 00:21:26 00:32:58 57° 305° (NW) 00:45:04 29.354- 29.394
VELOX 1 19 Jan 00:24:47 00:26:50 13° 267° (W) 00:28:52 145.980
Cosmos 2504 19 Jan 00:32:12 00:36:29 16° 69° (ENE) 00:40:41 435.465 / 435.565
POPSAT HIP 1 19 Jan 00:36:45 00:38:59 14° 292° (WNW) 00:41:16 437.405
Cosmos 2491 19 Jan 00:46:49 00:53:55 29° 85° (E) 01:01:01 435.465 / 435.565
DUCHIFAT 1 19 Jan 00:50:35 00:52:01 12° 293° (WNW) 00:53:27 145.980
AIST 1 19 Jan 00:51:03 00:55:18 65° 82° (E) 00:59:30
BEESAT 19 Jan 00:52:36 00:56:17 23° 69° (ENE) 00:59:59 436.000
SWISSCUBE 19 Jan 00:53:45 00:57:42 26° 70° (ENE) 01:01:38 437.505
Oscar 19 19 Jan 00:57:18 01:02:25 59° 101° (E) 01:07:27 437.125/150
Gurwin Techsat 1B 19 Jan 00:57:31 01:02:07 30° 97° (E) 01:06:42 435.225
TISAT 1 19 Jan 01:03:10 01:07:10 43° 260° (W) 01:11:09 437.305
UKube-1 19 Jan 01:05:42 01:07:31 12° 267° (W) 01:09:19 .
BEESAT 3 19 Jan 01:11:39 01:15:28 42° 58° (ENE) 01:19:15 437.485
